• In Russia
  • List of Countries
  • For 7 days
  • Water Temperature
  • Satellite Maps
  • Weather Map
  • Weather Widgets
  • user-avatar
    Login

    Hourly Weather Adelaide

    Today, 23 January, Tuesday

    Time Temperature Precipitation Wind Pressure Humidity
    00:00 +19°C° 0 mm 5 mps 754 mmHg 75%
    01:00 +18°C° 0 mm 4 mps 754 mmHg 77%
    02:00 +18°C° 0 mm 4 mps 754 mmHg 78%
    03:00 +18°C° 0 mm 4 mps 754 mmHg 79%
    04:00 +18°C° 0 mm 4 mps 755 mmHg 79%
    05:00 +18°C° 0 mm 4 mps 755 mmHg 79%
    06:00 +18°C° 0 mm 4 mps 755 mmHg 79%
    07:00 +20°C° 0 mm 4 mps 755 mmHg 70%
    08:00 +21°C° 0 mm 4 mps 755 mmHg 61%
    09:00 +23°C° 0 mm 4 mps 755 mmHg 52%
    10:00 +26°C° 0 mm 4 mps 755 mmHg 47%
    11:00 +27°C° 0 mm 4 mps 755 mmHg 42%
    12:00 +29°C° 0 mm 4 mps 754 mmHg 37%
    13:00 +29°C° 0 mm 5 mps 754 mmHg 37%
    14:00 +29°C° 0 mm 5 mps 753 mmHg 38%
    15:00 +29°C° 0 mm 6 mps 753 mmHg 38%
    16:00 +28°C° 0 mm 6 mps 753 mmHg 42%
    17:00 +27°C° 0 mm 6 mps 753 mmHg 46%
    18:00 +26°C° 0 mm 6 mps 753 mmHg 51%
    19:00 +23°C° 0 mm 5 mps 753 mmHg 56%
    20:00 +22°C° 0 mm 5 mps 754 mmHg 61%
    21:00 +20°C° 0 mm 5 mps 754 mmHg 66%
    22:00 +20°C° 0 mm 5 mps 754 mmHg 68%
    23:00 +20°C° 0 mm 4 mps 753 mmHg 70%

    Tomorrow, 24 January, Wednesday

    Time Temperature Precipitation Wind Pressure Humidity
    00:00 +19°C° 0 mm 4 mps 753 mmHg 72%
    01:00 +19°C° 0 mm 4 mps 753 mmHg 74%
    02:00 +19°C° 0 mm 4 mps 753 mmHg 76%
    03:00 +18°C° 0 mm 4 mps 752 mmHg 78%
    04:00 +18°C° 0 mm 4 mps 753 mmHg 76%
    05:00 +19°C° 0 mm 4 mps 753 mmHg 75%
    06:00 +19°C° 0 mm 4 mps 753 mmHg 74%
    07:00 +21°C° 0 mm 4 mps 753 mmHg 65%
    08:00 +23°C° 0 mm 4 mps 753 mmHg 56%
    09:00 +26°C° 0 mm 4 mps 754 mmHg 47%
    10:00 +27°C° 0 mm 5 mps 753 mmHg 43%
    11:00 +29°C° 0 mm 5 mps 753 mmHg 39%
    12:00 +30°C° 0 mm 5 mps 752 mmHg 36%
    13:00 +30°C° 0 mm 6 mps 752 mmHg 35%
    14:00 +32°C° 0 mm 6 mps 751 mmHg 34%
    15:00 +32°C° 0 mm 6 mps 751 mmHg 34%
    16:00 +29°C° 0 mm 6 mps 751 mmHg 38%
    17:00 +28°C° 0 mm 6 mps 751 mmHg 42%
    18:00 +26°C° 0 mm 6 mps 751 mmHg 47%
    19:00 +24°C° 0 mm 6 mps 751 mmHg 52%
    20:00 +22°C° 0 mm 6 mps 752 mmHg 58%
    21:00 +21°C° 0 mm 6 mps 752 mmHg 64%
    22:00 +21°C° 0 mm 5 mps 752 mmHg 65%
    23:00 +20°C° 0 mm 5 mps 752 mmHg 67%

    Day after tomorrow, 25 January, Thursday

    Time Temperature Precipitation Wind Pressure Humidity
    00:00 +20°C° 0 mm 5 mps 752 mmHg 68%
    01:00 +20°C° 0 mm 4 mps 752 mmHg 69%
    02:00 +19°C° 0 mm 4 mps 751 mmHg 71%
    03:00 +19°C° 0 mm 4 mps 751 mmHg 72%
    04:00 +19°C° 0 mm 3 mps 751 mmHg 72%
    05:00 +20°C° 0 mm 3 mps 751 mmHg 71%
    06:00 +20°C° 0 mm 3 mps 751 mmHg 71%
    07:00 +22°C° 0 mm 3 mps 752 mmHg 62%
    08:00 +26°C° 0 mm 3 mps 752 mmHg 52%
    09:00 +28°C° 0 mm 3 mps 752 mmHg 43%
    10:00 +29°C° 0 mm 4 mps 752 mmHg 40%
    11:00 +32°C° 0 mm 4 mps 751 mmHg 36%
    12:00 +33°C° 0 mm 5 mps 751 mmHg 33%
    13:00 +33°C° 0 mm 5 mps 751 mmHg 32%
    14:00 +33°C° 0 mm 5 mps 750 mmHg 31%
    15:00 +33°C° 0 mm 5 mps 750 mmHg 30%
    16:00 +32°C° 0 mm 5 mps 750 mmHg 33%
    17:00 +30°C° 0 mm 5 mps 751 mmHg 36%
    18:00 +28°C° 0 mm 5 mps 751 mmHg 39%
    19:00 +27°C° 0 mm 5 mps 752 mmHg 45%
    20:00 +25°C° 0 mm 5 mps 752 mmHg 51%
    21:00 +22°C° 0 mm 4 mps 753 mmHg 57%
    22:00 +22°C° 0 mm 4 mps 752 mmHg 60%
    23:00 +21°C° 0 mm 4 mps 752 mmHg 64%

    26 January, Friday

    Time Temperature Precipitation Wind Pressure Humidity
    00:00 +21°C° 0 mm 4 mps 752 mmHg 67%
    01:00 +21°C° 0 mm 4 mps 752 mmHg 67%
    02:00 +20°C° 0 mm 4 mps 752 mmHg 67%
    03:00 +20°C° 0 mm 3 mps 751 mmHg 67%
    04:00 +21°C° 0 mm 3 mps 752 mmHg 66%
    05:00 +21°C° 0 mm 3 mps 752 mmHg 65%
    06:00 +21°C° 0 mm 3 mps 752 mmHg 64%
    07:00 +24°C° 0 mm 3 mps 752 mmHg 54%
    08:00 +27°C° 0 mm 2 mps 753 mmHg 44%
    09:00 +29°C° 0 mm 2 mps 753 mmHg 34%
    10:00 +31°C° 0 mm 3 mps 753 mmHg 31%
    11:00 +33°C° 0 mm 3 mps 752 mmHg 28%
    12:00 +35°C° 0 mm 4 mps 752 mmHg 25%
    13:00 +35°C° 0 mm 4 mps 752 mmHg 24%
    14:00 +36°C° 0 mm 4 mps 751 mmHg 24%
    15:00 +36°C° 0 mm 5 mps 751 mmHg 24%
    16:00 +35°C° 0 mm 5 mps 751 mmHg 26%
    17:00 +34°C° 0 mm 5 mps 751 mmHg 28%
    18:00 +32°C° 0 mm 5 mps 751 mmHg 31%
    19:00 +30°C° 0 mm 4 mps 752 mmHg 33%
    20:00 +29°C° 0 mm 4 mps 752 mmHg 35%
    21:00 +27°C° 0 mm 4 mps 752 mmHg 37%
    22:00 +27°C° 0 mm 3 mps 752 mmHg 37%
    23:00 +27°C° 0 mm 3 mps 752 mmHg 37%

    27 January, Saturday

    Time Temperature Precipitation Wind Pressure Humidity
    00:00 +27°C° 0 mm 3 mps 751 mmHg 37%
    01:00 +27°C° 0 mm 3 mps 751 mmHg 37%
    02:00 +27°C° 0 mm 2 mps 751 mmHg 37%
    03:00 +27°C° 0 mm 2 mps 751 mmHg 37%
    04:00 +27°C° 0 mm 3 mps 751 mmHg 38%
    05:00 +28°C° 0 mm 3 mps 751 mmHg 39%
    06:00 +28°C° 0 mm 3 mps 751 mmHg 40%
    07:00 +30°C° 0 mm 3 mps 751 mmHg 38%
    08:00 +33°C° 0 mm 3 mps 751 mmHg 36%
    09:00 +35°C° 0 mm 3 mps 751 mmHg 34%
    10:00 +38°C° 0 mm 2 mps 751 mmHg 30%
    11:00 +40°C° 0 mm 2 mps 750 mmHg 26%
    12:00 +42°C° 0 mm 2 mps 750 mmHg 21%
    13:00 +42°C° 0 mm 2 mps 750 mmHg 21%
    14:00 +42°C° 0 mm 2 mps 749 mmHg 20%
    15:00 +43°C° 0 mm 3 mps 749 mmHg 20%
    16:00 +43°C° 0 mm 3 mps 749 mmHg 21%
    17:00 +42°C° 0 mm 3 mps 748 mmHg 22%
    18:00 +41°C° 0 mm 4 mps 748 mmHg 23%
    19:00 +40°C° 0 mm 4 mps 749 mmHg 26%
    20:00 +37°C° 0 mm 4 mps 749 mmHg 29%
    21:00 +36°C° 0 mm 4 mps 749 mmHg 32%
    22:00 +35°C° 0 mm 4 mps 749 mmHg 31%
    23:00 +35°C° 0 mm 4 mps 749 mmHg 31%

    28 January, Sunday

    Time Temperature Precipitation Wind Pressure Humidity
    00:00 +35°C° 0 mm 4 mps 748 mmHg 31%
    01:00 +34°C° 0 mm 3 mps 748 mmHg 30%
    02:00 +34°C° 0 mm 3 mps 748 mmHg 30%
    03:00 +34°C° 0 mm 3 mps 747 mmHg 30%
    04:00 +34°C° 0 mm 3 mps 747 mmHg 29%
    05:00 +34°C° 0 mm 3 mps 748 mmHg 28%
    06:00 +35°C° 0 mm 3 mps 748 mmHg 28%
    07:00 +37°C° 0 mm 3 mps 748 mmHg 24%
    08:00 +40°C° 0 mm 3 mps 748 mmHg 20%
    09:00 +43°C° 0 mm 4 mps 748 mmHg 16%
    10:00 +44°C° 0 mm 3 mps 747 mmHg 16%
    11:00 +46°C° 0 mm 3 mps 747 mmHg 15%
    12:00 +47°C° 0 mm 3 mps 746 mmHg 14%
    13:00 +47°C° 0 mm 4 mps 746 mmHg 15%
    14:00 +46°C° 0 mm 5 mps 745 mmHg 17%
    15:00 +45°C° 0 mm 5 mps 745 mmHg 18%
    16:00 +41°C° 0 mm 7 mps 746 mmHg 26%
    17:00 +38°C° 0 mm 8 mps 746 mmHg 33%
    18:00 +34°C° 0 mm 9 mps 747 mmHg 41%
    19:00 +32°C° 0 mm 9 mps 747 mmHg 45%
    20:00 +31°C° 0 mm 9 mps 748 mmHg 48%
    21:00 +28°C° 0 mm 9 mps 749 mmHg 52%
    22:00 +28°C° 0 mm 8 mps 749 mmHg 53%
    23:00 +28°C° 0 mm 7 mps 749 mmHg 53%
    Show more